Regional Weather Roundup
Issued by NWS Kansas City/Pleasant Hill, MO

Home | Current Version | Previous Version | Graphics & Text | Print | Product List | Glossary Off
Versions: 1 2 3 4 5 6 7 8 9 10 11 12 13 14 15 16 17 18 19 20 21 22 23 24 25 26 27

000
ASUS43 KEAX 241610
RWREAX

WEATHER ROUNDUP FOR EASTERN KANSAS AND NORTHWEST MISSOURI
NATIONAL WEATHER SERVICE KANSAS CITY/PLEASANT HILL MO
1000 AM CST FRI FEB 24 2017

KSZ040-057-103>105-MOZ028-029-037-043-241700-
...KANSAS CITY METROPOLITAN AREA...

CITY           SKY/WX    TMP DP  RH WIND       PRES   REMARKS
K.C. INTL      CLOUDY    38  35  89 NW13G18   29.67R WCI  30
K.C. DOWNTOWN  CLOUDY    42  34  73 W15G22    29.67S WCI  34
LEES SUMMIT    CLOUDY    40  34  79 W14       29.67R WCI  32
OLATHE - IXD   CLOUDY    39  32  76 W20       29.69R WCI  29
OLATHE - OJC   CLOUDY    37  35  92 W13G21    29.68R WCI  29
LAWRENCE       LGT RAIN  38  36  92 W16       29.71R FOG     WCI  29

$$

MOZ001>008-011>017-020>025-030>033-038>040-044>046-053-054-241700-
...NORTHERN AND CENTRAL MISSOURI...

CITY           SKY/WX    TMP DP  RH WIND       PRES   REMARKS
ST. JOSEPH     CLOUDY    37  35  92 NW20G25   29.69R WCI  27
MOSBY            N/A     37  34  87 NW10G16   29.66S WCI  30
WARRENSBURG    CLOUDY    39  34  81 W15       29.68R WCI  31
WHITEMAN AFB   PTSUNNY   42  40  91 W16G24    29.65R WCI  35
CLINTON        CLOUDY    39  36  87 W14G23    29.70R WCI  31
SEDALIA        CLOUDY    44  37  76 W17G28    29.65R
WARSAW         NOT AVBL
CHILLICOTHE    NOT AVBL
KIRKSVILLE     CLOUDY    40  38  93 W15       29.58R WCI  32

$$

MOZ041-047>049-056>058-063>065-088>090-097-241700-
...EASTERN AND SOUTHERN MISSOURI...

CITY           SKY/WX    TMP DP  RH WIND       PRES   REMARKS
ST. LOUIS INTL CLOUDY    59  50  72 NW17G25   29.52R
SPIRIT OF STL  CLOUDY    56  50  80 W17G25    29.54R
COLUMBIA       CLOUDY    46  41  82 W15G24    29.60R
JEFFERSON CITY CLOUDY    47  39  74 W18       29.62R
ROLLA          CLOUDY    47  43  86 W17       29.60R
OSAGE BEACH    CLOUDY    46  38  73 W12       29.66R
SPRINGFIELD    CLOUDY    43  36  76 MISG      29.69R
BRANSON        CLOUDY    46  39  76 W7G16     29.71R
JOPLIN         CLOUDY    41  33  73 NW17      29.76R WCI  32

$$

IAZ060-094-KSZ022-034>040-054-083-096-NEZ052-066-093-241700-
...KANSAS...SOUTHEAST NEBRASKA AND IOWA...

CITY           SKY/WX    TMP DP  RH WIND       PRES   REMARKS
TOPEKA         LGT RAIN  37  35  92 NW17G25   29.73R WCI  27
MANHATTAN      CLOUDY    35  29  78 N12G21    29.79R WCI  27
EMPORIA        CLOUDY    36  27  69 W22G33    29.77R WCI  25
CHANUTE        CLOUDY    41  27  57 NW22G30   29.78R WCI  31
WICHITA        CLOUDY    35  24  64 NW25G31   29.86R WCI  23
OMAHA          LGT SNOW  27  22  81 N24G31    29.77S VSB 1   WCI  12
LINCOLN        SNOW      26  24  92 N26G32    29.82R VSB 1/2 WCI  10
FALLS CITY     FRZ RAIN  32  29  88 N20G25    29.73R FOG     WCI  20
LAMONI         LGT SNOW  34  32  92 NW12      29.62R FOG     WCI  25
DES MOINES     LGT SNOW  33  30  88 N16G28    29.64R FOG     WCI  23

$$





USA.gov is the U.S. government's official web portal to all federal, state and local government web resources and services.